KC2BJT Weather Reports


Display with metric or nautical units.
time (UTC)temp
F
wind
direction
speed
MPH
gust
MPH
rain 1hr
in
rain 24hr
in
rain mn
in
humidity
%
barometer
mb
20260506153023 59 310 1.0 4.0 0.08 0.15 0.15 91 1008.0
20260506151515 59 263 1.0 4.0 0.09 0.14 0.14 91 1008.1
20260506150027 59 253 1.0 3.0 0.09 0.11 0.11 91 1008.2
20260506144523 59 219 0.0 2.0 0.09 0.09 0.09 90 1008.2
20260506143038 59 314 0.0 2.0 0.07 0.07 0.07 89 1008.3
20260506141526 60 197 0.0 1.0 0.05 0.05 0.05 89 1008.6
20260506140016 60 108 0.0 2.0 0.02 0.02 0.02 88 1008.7
20260506134521 60 349 0.0 2.0 0.00 0.00 0.00 86 1008.9
20260506133025 60 21 0.0 4.0 0.00 0.00 0.00 85 1008.8
20260506131527 60 360 0.0 3.0 0.00 0.00 0.00 85 1008.5
20260506130025 60 15 0.0 4.0 0.00 0.00 0.00 84 1008.3
20260506124516 61 19 2.0 4.0 0.00 0.00 0.00 82 1008.3
20260506123024 61 183 1.0 5.0 0.00 0.00 0.00 80 1008.5
20260506121527 62 352 0.0 3.0 0.00 0.00 0.00 78 1008.6
20260506120030 62 291 1.0 4.0 0.00 0.00 0.00 76 1008.6
20260506114519 62 249 3.0 8.0 0.00 0.00 0.00 75 1008.5
20260506113021 62 23 2.0 6.0 0.00 0.00 0.00 75 1008.6
20260506111503 62 267 2.0 4.0 0.00 0.00 0.00 75 1008.3
20260506110010 61 254 1.0 7.0 0.00 0.00 0.00 74 1008.2
20260506104514 61 25 0.0 7.0 0.00 0.00 0.00 73 1008.1
20260506103018 62 326 1.0 4.0 0.00 0.00 0.00 72 1008.0
20260506101505 62 346 0.0 5.0 0.00 0.00 0.00 71 1008.2
20260506100010 62 288 3.0 10.0 0.00 0.00 0.00 70 1008.1
20260506094518 62 348 0.0 5.0 0.00 0.00 0.00 69 1008.1
20260506093019 62 52 1.0 5.0 0.00 0.00 0.00 68 1008.0
20260506091525 61 38 1.0 6.0 0.00 0.00 0.00 68 1008.2
20260506090008 61 360 0.0 3.0 0.00 0.00 0.00 68 1008.2
20260506084519 62 273 0.0 4.0 0.00 0.00 0.00 67 1008.1
20260506083016 62 360 0.0 3.0 0.00 0.00 0.00 66 1008.2
20260506081522 62 5 1.0 3.0 0.00 0.00 0.00 65 1008.3
20260506073016 63 296 1.0 7.0 0.00 0.00 0.00 62 1008.4
20260506071522 63 263 0.0 2.0 0.00 0.00 0.00 61 1008.5
20260506061521 64 28 0.0 10.0 0.00 0.00 0.00 58 1009.0
20260506044508 64 51 0.0 3.0 0.00 0.00 0.00 60 1009.3
20260506043008 64 286 0.0 2.0 0.00 0.00 0.00 58 1009.3
20260506041522 65 253 1.0 2.0 0.00 0.00 0.00 56 1009.3
20260506040022 66 270 0.0 3.0 0.00 0.00 0.00 55 1009.2
20260506034523 66 5 0.0 4.0 0.00 0.00 0.00 52 1009.2
20260506033006 67 360 0.0 10.0 0.00 0.00 0.00 51 1009.2
20260506031519 68 55 1.0 6.0 0.00 0.00 0.00 49 1009.1
20260506030022 68 246 1.0 4.0 0.00 0.00 0.00 47 1009.2
20260506024520 69 228 1.0 5.0 0.00 0.00 0.00 46 1009.3
20260506023023 70 12 1.0 4.0 0.00 0.00 0.00 45 1009.2
20260506021511 70 311 0.0 4.0 0.00 0.00 0.00 45 1009.2
20260506020021 70 290 3.0 9.0 0.00 0.00 0.00 44 1009.2
20260506014522 70 44 0.0 3.0 0.00 0.00 0.00 45 1009.0
20260506013029 71 352 0.0 11.0 0.00 0.00 0.00 45 1008.8
20260506011527 70 84 2.0 10.0 0.00 0.00 0.00 44 1008.6
20260506010023 71 39 1.0 3.0 0.00 0.00 0.00 45 1008.6
20260506004523 71 208 0.0 8.0 0.00 0.00 0.00 45 1008.4
20260506003021 71 33 0.0 3.0 0.00 0.00 0.00 45 1008.3
20260506001527 72 301 2.0 6.0 0.00 0.00 0.00 44 1008.2
20260506000036 72 360 1.0 7.0 0.00 0.00 0.00 42 1008.2
20260505234517 73 11 0.0 4.0 0.00 0.00 0.00 42 1008.1
20260505233018 73 271 1.0 5.0 0.00 0.00 0.00 41 1008.1
20260505231522 73 276 3.0 6.0 0.00 0.00 0.00 41 1007.8
20260505230032 74 29 1.0 10.0 0.00 0.00 0.00 40 1007.6
20260505224512 74 9 2.0 12.0 0.00 0.00 0.00 39 1007.5
20260505223023 75 346 1.0 4.0 0.00 0.00 0.00 38 1007.4
20260505221504 75 284 0.0 7.0 0.00 0.00 0.00 36 1007.2
20260505220022 76 67 1.0 7.0 0.00 0.00 0.00 35 1007.2
20260505214514 76 263 2.0 12.0 0.00 0.00 0.00 33 1007.1
20260505213023 76 31 2.0 10.0 0.00 0.00 0.00 34 1006.8
20260505211503 77 288 3.0 9.0 0.00 0.00 0.00 33 1006.6
20260505210006 78 269 1.0 15.0 0.00 0.00 0.00 31 1006.6
20260505204516 79 360 2.0 18.0 0.00 0.00 0.00 31 1006.6
20260505203012 80 352 3.0 10.0 0.00 0.00 0.00 30 1006.6
20260505201533 81 255 4.0 16.0 0.00 0.00 0.00 29 1006.6
20260505200007 81 254 1.0 22.0 0.00 0.00 0.00 31 1006.7
20260505194509 81 350 3.0 9.0 0.00 0.00 0.00 30 1006.8
20260505193034 80 9 1.0 13.0 0.00 0.00 0.00 33 1007.2
20260505191514 81 270 4.0 11.0 0.00 0.00 0.00 33 1007.2
20260505190030 81 170 2.0 15.0 0.00 0.00 0.00 33 1007.1
20260505184504 81 150 3.0 11.0 0.00 0.00 0.00 32 1007.4
20260505183016 81 310 6.0 13.0 0.00 0.00 0.00 33 1007.7
20260505181518 79 263 2.0 15.0 0.00 0.00 0.00 36 1007.8
20260505180031 78 311 2.0 8.0 0.00 0.00 0.00 38 1008.0
20260505174530 79 360 2.0 11.0 0.00 0.00 0.00 35 1008.1
20260505173009 78 292 2.0 14.0 0.00 0.00 0.00 37 1008.0
20260505171525 79 9 2.0 8.0 0.00 0.00 0.00 38 1008.2
20260505170018 79 305 3.0 10.0 0.00 0.00 0.00 36 1008.2
20260505164532 80 340 3.0 10.0 0.00 0.00 0.00 37 1008.3
20260505163005 80 333 2.0 7.0 0.00 0.00 0.00 37 1008.7
20260505161511 79 256 3.0 6.0 0.00 0.00 0.00 39 1008.9